YUBILEINY (RS30)

Last updated on Sun Aug 09 2026 00:03:15 GMT+0000 (Coordinated Universal Time)

1 32953U 08025A 26220.65066637 -.00000025 00000+0 -25127-3 0 9996 2 32953 82.5071 322.8099 0019495 193.8226 166.2322 12.43181628826216
UTC large
Height (km)
Speed (km/s)
/
Latitude / Longitude
Inclination (degrees)
Orbital Period (minutes)
Azimuth
Elevation
Range (km)
Doppler Factor

Next 0 passes for location: London (51.5072 / 0.1276)

No passes found over London.
YUBILEINY (RS30)